Location: Unspecified
(0.0000°N, 0.0000°E)
Time: 19:23:17
(UTC+00:00)

Tiros 1 - Pass Details

Date: 22 October 2021
Orbit: 630 x 664 km, 48.4° (Epoch: 04 December)

Event Time Altitude Azimuth Distance (km) Brightness Sun altitude
Rises 20:10:27 0° 302° (WNW) 2,902 11.0 -35.7°
Reaches altitude 10° 20:12:59 10° 291° (WNW) 1,996 10.2 -36.3°
Enters shadow 20:13:57 15° 284° (WNW) 1,687 9.8 -36.5°
Maximum altitude 20:16:59 29° 231° (SW) 1,143 - -37.3°
Drops below altitude 10° 20:21:00 10° 170° (S) 2,005 - -38.2°
Sets 20:23:33 0° 159° (SSE) 2,917 - -38.9°
